Wilmington, OH

4:41 AM EDT on April 21, 2018 (GMT -0400)
Airborne

Weather History for KILN - February, 2014

Change the Weather History Date:

Friday, February 7, 2014

  Actual Average (KFFO) Record (KFFO)
Temperature  
Mean Temperature 6 °F -  
Max Temperature 18 °F 38 °F 60 °F (2017)
Min Temperature -5 °F 22 °F -5 °F (2007)
Degree Days  
Heating Degree Days 58    
Moisture  
Dew Point -3 °F    
Average Humidity 66    
Maximum Humidity 87    
Minimum Humidity 45    
Precipitation  
Precipitation 0.00 in - - ()
Sea Level Pressure  
Sea Level Pressure 30.51 in    
Wind  
Wind Speed 6 mph (West)    
Max Wind Speed 10 mph    
Max Gust Speed -    
Visibility 10 miles    
Events      
Averages and records for this station are not official NWS values.
T = Trace of Precipitation, MM = Missing Value Source: NWS Daily Summary

Daily Weather History Graph

Daily Weather History Graph

Search for Another Location

Airport or City:

Astronomy

Feb. 07, 2014 Rise Set
Actual Time 7:36 AM EST 6:02 PM EST
Civil Twilight 7:08 AM EST 6:30 PM EST
Nautical Twilight 6:36 AM EST 7:02 PM EST
Astronomical Twilight 6:05 AM EST 7:33 PM EST
Moon 12:13 PM EST (2/7) 1:51 AM EST (2/7)
Length of Visible Light 11h 22m
Length of Day
10h 26m
First Quarter, 59% of the Moon is Illuminated
Feb 7
First Quarter
Feb 14
Full
Feb 22
Last Quarter
Mar 1
New
Mar 8
First Quarter

Hourly Weather History & Observations

Time (EST) Temp. Windchill Dew Point Humidity Pressure Visibility Wind Dir Wind Speed Gust Speed Precip Events Conditions
12:54 AM 8.1 °F -6.2 °F -0.9 °F 67% 30.37 in 10.0 mi WNW 10.4 mph - N/A   Overcast
1:51 AM 5.0 °F -6.9 °F -2.2 °F 72% 30.37 in 10.0 mi WNW 6.9 mph - N/A   Partly Cloudy
1:54 AM 5.0 °F -8.1 °F -2.9 °F 70% 30.37 in 10.0 mi WNW 8.1 mph - N/A   Partly Cloudy
2:54 AM 3.0 °F -8.0 °F -4.0 °F 73% 30.52 in 10.0 mi NW 5.8 mph - N/A   Clear
3:54 AM 1.0 °F -8.7 °F -6.0 °F 72% 30.53 in 10.0 mi NW 4.6 mph - N/A   Clear
4:54 AM -2.0 °F -10.1 °F -6.0 °F 83% 30.54 in 10.0 mi WSW 3.5 mph - N/A   Clear
5:54 AM -2.9 °F -11.2 °F -7.1 °F 82% 30.53 in 10.0 mi WSW 3.5 mph - N/A   Clear
6:54 AM -5.1 °F -15.8 °F -8.0 °F 87% 30.55 in 10.0 mi SSW 4.6 mph - N/A   Clear
7:54 AM -0.9 °F -11.0 °F -8.0 °F 72% 30.54 in 10.0 mi West 4.6 mph - N/A   Clear
8:54 AM 1.0 °F -8.7 °F -6.0 °F 72% 30.56 in 10.0 mi WSW 4.6 mph - N/A   Clear
9:54 AM 3.9 °F -6.9 °F -5.1 °F 66% 30.56 in 10.0 mi West 5.8 mph - N/A   Clear
10:54 AM 7.0 °F -3.3 °F -4.0 °F 61% 30.56 in 10.0 mi WSW 5.8 mph - N/A   Clear
11:54 AM 9.0 °F -3.2 °F -2.9 °F 59% 30.57 in 10.0 mi WSW 8.1 mph - N/A   Clear
12:54 PM 12.0 °F 0.5 °F -2.0 °F 53% 30.55 in 10.0 mi WSW 8.1 mph - 0.00 in   Clear
1:54 PM 14.0 °F 2.9 °F -0.9 °F 52% 30.53 in 10.0 mi WSW 8.1 mph - 0.00 in   Clear
2:54 PM 16.0 °F 5.3 °F -0.0 °F 49% 30.52 in 10.0 mi WSW 8.1 mph - N/A   Clear
3:54 PM 18.0 °F 12.7 °F -0.0 °F 45% 30.52 in 10.0 mi SW 3.5 mph - N/A   Clear
4:54 PM 18.0 °F 11.1 °F -0.0 °F 45% 30.52 in 10.0 mi NW 4.6 mph - N/A   Clear
5:54 PM 14.0 °F 6.5 °F -0.0 °F 54% 30.52 in 10.0 mi NNW 4.6 mph - N/A   Clear
6:54 PM 10.0 °F 3.6 °F -0.0 °F 64% 30.52 in 10.0 mi NE 3.5 mph - N/A   Clear
7:54 PM 7.0 °F 0.1 °F -0.0 °F 73% 30.53 in 10.0 mi ESE 3.5 mph - N/A   Clear
8:54 PM 8.1 °F - -0.0 °F 70% 30.51 in 10.0 mi Calm Calm - N/A   Clear
9:54 PM 5.0 °F - -0.9 °F 76% 30.51 in 10.0 mi Calm Calm - N/A   Clear
10:54 PM 8.1 °F - -0.0 °F 70% 30.48 in 10.0 mi Calm Calm - N/A   Clear
11:54 PM 8.1 °F 1.4 °F -0.0 °F 70% 30.47 in 10.0 mi North 3.5 mph - N/A   Clear